Pink Ribbon: National Breast Cancer Awareness Month map of SNC home
SNC - Airport
Location
City:  Salinas, Santa Elena, Ecuador
Name:General Ulpiano Pez
ICAO:SESA
IATA:SNC

Details
Type:Airport (Aerodrome, Airfield)
Use:Public/Civil, Military
Latitude:212'18"S (-2.204993)
Longitude:8059'20"W (-80.988877)
Datum:WGS 1984
Elevation:18 ft (5 m)
Variation:1.21W (WMM2015 magnetic declination)
-0.15 annual change
Runways:2
Longest:7995 × 98 ft (2437 × 30 m), paved

Time
Time Zone:UTC-5
Local Time:

Weather
METAR:SESA 012200Z 24009KT 9999 SCT012 BKN015 22/19 Q1011

Related Locations
Nearby:
Farthest:DTB: 12449 mi / 20035 km
Siborong-Borong (Tarutung) [Silangit Airport], SU, ID

Find:

   beyond  
but within

Other Information
Maps:
NOTAMs:
Links:
Sources:

  
flag of Ecuador
flag of Santa Elena
  

Sectional Chart

Flight Planning
at skyvector.com

Satellite Image

Google Maps Satellite view

 

Copyright © 2004-2016 Karl L. Swartz. All rights reserved.
The Great Circle Mapper name and logo are trademarks of the Great Circle Mapper.
All other trademarks mentioned herein belong to their respective owners.
Please see credits for attibutions and further copyright information.

  Follow gcmap on Facebook Follow gcmap on Twitter Follow gcmap on Google+ GCmap on LinkedIn

hCard Microformat

Geo Microformat